Location: Fort Worth, Tx
(32.7431°N, 97.3695°W)
Time: 20:49:14
(UTC-04:00)

Vanguard 1 Rocket - Pass Details

Date: 16 September 2024
Orbit: 650 x 4218 km, 34.3° (Epoch: 11 October)

Event Time Altitude Azimuth Distance (km) Brightness Sun altitude
Exits shadow 07:21:48 13° 264° (W) 4,867 10.4 -11.8°
Maximum altitude 07:37:42 86° 355° (N) 3,602 10.4 -8.5°
Drops below altitude 10° 08:04:23 10° 87° (E) 7,392 14.1 -2.9°
Sets 08:10:01 0° 88° (E) 8,298 16.1 -1.7°
